Location: Saint Louis
(38.6272°N, 90.1978°W)
Time: 04:11:38
(UTC-05:00)

ISS - Pass Details

Date: 25 April 2013
Orbit: 401 x 404 km, 51.6° (Epoch: 23 July)

Event Time Altitude Azimuth Distance (km) Brightness Sun altitude
Rises 20:35:55 0° 318° (NW) 2,320 2.0 -9.6°
Reaches altitude 10° 20:38:27 10° 338° (NNW) 1,459 0.3 -10.0°
Maximum altitude 20:40:48 18° 24° (NNE) 1,064 -1.2 -10.5°
Drops below altitude 10° 20:43:10 10° 70° (ENE) 1,456 -0.9 -10.9°
Enters shadow 20:43:19 - 72° (ENE) 1,503 -0.9 -10.9°
